,,Stat5,,Stat1,,Stat2,,Stat3,,Stat4,,Wind1,,Wind1,
time,status,PA1M_AVG,status,PR1M_SUM,status,RH1M_AVG,status,SR1M_AVG,status,TA1M_AVG,status,W1dAve1m,status,W1sAve1m,
2001-03-04, 00:00:00,VALID,919.438,VALID,0,VALID,93.5341,VALID,-0.0339617,VALID,19.7611,VALID,189,VALID,0.286184,
2001-03-04, 00:01:00,VALID,919.433,VALID,0,VALID,93.3714,VALID,-0.0169808,VALID,19.7641,VALID,178,VALID,0.443257,
2001-03-04, 00:02:00,VALID,919.432,VALID,0,VALID,93.0993,VALID,-0.0169808,VALID,19.771,VALID,167,VALID,0.5,
2001-03-04, 00:03:00,VALID,919.427,VALID,0,VALID,93.0141,VALID,-0.0679233,VALID,19.7643,VALID,164,VALID,0.473242,
2001-03-04, 00:04:00,VALID,919.412,VALID,0,VALID,93.1361,VALID,-0.0169808,VALID,19.7445,VALID,157,VALID,0.58113,
2001-03-04, 00:05:00,VALID,919.398,VALID,0,VALID,93.1349,VALID,-0.0509425,VALID,19.731,VALID,155,VALID,0.678686,
2001-03-04, 00:06:00,VALID,919.397,VALID,0,VALID,93.2061,VALID,0.0339617,VALID,19.7276,VALID,154,VALID,0.709248,
2001-03-04, 00:07:00,VALID,919.388,VALID,0,VALID,93.3714,VALID,-0.101885,VALID,19.7032,VALID,161,VALID,0.505859,
2001-03-04, 00:08:00,VALID,919.38,VALID,0,VALID,93.3345,VALID,-0.0849042,VALID,19.6806,VALID,181,VALID,0.580882,
2001-03-04, 00:09:00,VALID,919.381,VALID,0,VALID,93.4935,VALID,-0.0679233,VALID,19.6418,VALID,205,VALID,0.481641,
2001-03-04, 00:10:00,VALID,919.385,VALID,0,VALID,93.6664,VALID,-0.0509425,VALID,19.6098,VALID,224,VALID,0.428486,
2001-03-04, 00:11:00,VALID,919.393,VALID,0,VALID,93.908,VALID,-0.0509425,VALID,19.5901,VALID,219,VALID,0.11616,
2001-03-04, 00:12:00,VALID,919.381,VALID,0,VALID,94.1649,VALID,-0.0679233,VALID,19.5772,VALID,236,VALID,0.304297,
2001-03-04, 00:13:00,VALID,919.381,VALID,0,VALID,94.1458,VALID,-0.0849042,VALID,19.5641,VALID,237,VALID,0.406641,
2001-03-04, 00:14:00,VALID,919.373,VALID,0,VALID,94.4052,VALID,-0.0679233,VALID,19.5355,VALID,219,VALID,0.52832,
2001-03-04, 00:15:00,VALID,919.369,VALID,0,VALID,94.6099,VALID,-0.101885,VALID,19.4932,VALID,199,VALID,0.694111,
2001-03-04, 00:16:00,VALID,919.35,VALID,0,VALID,95.088,VALID,-0.0509425,VALID,19.4383,VALID,185,VALID,0.771793,
2001-03-04, 00:17:00,VALID,919.33,VALID,0,VALID,95.5471,VALID,-0.0509425,VALID,19.3998,VALID,180,VALID,0.735978,
2001-03-04, 00:18:00,VALID,919.313,VALID,0,VALID,95.7671,VALID,-0.0509425,VALID,19.3551,VALID,169,VALID,1.01643,
2001-03-04, 00:19:00,VALID,919.307,VALID,0,VALID,95.6386,VALID,-0.0509425,VALID,19.3191,VALID,173,VALID,0.732897,
2001-03-04, 00:20:00,VALID,919.301,VALID,0,VALID,95.6247,VALID,-0.0679233,VALID,19.2897,VALID,187,VALID,0.822316,
2001-03-04, 00:21:00,VALID,919.296,VALID,0,VALID,95.7658,VALID,-0.0339617,VALID,19.3186,VALID,204,VALID,1.06944,
2001-03-04, 00:22:00,VALID,919.291,VALID,0,VALID,95.4174,VALID,-0.0679233,VALID,19.3933,VALID,223,VALID,1.11762,
2001-03-04, 00:23:00,VALID,919.275,VALID,0,VALID,94.9736,VALID,-0.0339617,VALID,19.4671,VALID,223,VALID,1.20215,
2001-03-04, 00:24:00,VALID,919.27,VALID,0,VALID,94.4446,VALID,-0.0339617,VALID,19.5583,VALID,221,VALID,0.849451,
2001-03-04, 00:25:00,VALID,919.252,VALID,0,VALID,94.0746,VALID,-0.0339617,VALID,19.652,VALID,211,VALID,0.755208,
2001-03-04, 00:26:00,VALID,919.236,VALID,0,VALID,93.6715,VALID,-0.0509425,VALID,19.7067,VALID,192,VALID,0.873355,
2001-03-04, 00:27:00,VALID,919.224,VALID,0,VALID,93.4769,VALID,-0.0169808,VALID,19.7519,VALID,200,VALID,0.628049,
2001-03-04, 00:28:00,VALID,919.206,VALID,0,VALID,93.3243,VALID,-0.0339617,VALID,19.7842,VALID,213,VALID,1.02484,
2001-03-04, 00:29:00,VALID,919.178,VALID,0,VALID,92.906,VALID,-0.0509425,VALID,19.8324,VALID,191,VALID,0.585726,
2001-03-04, 00:30:00,VALID,919.163,VALID,0,VALID,92.686,VALID,-0.0339617,VALID,19.8712,VALID,182,VALID,0.953125,
2001-03-04, 00:31:00,VALID,919.136,VALID,0,VALID,92.4444,VALID,-0.0339617,VALID,19.9072,VALID,170,VALID,0.928085,
2001-03-04, 00:32:00,VALID,919.112,VALID,0,VALID,92.1239,VALID,-0.0849042,VALID,19.8913,VALID,160,VALID,0.770354,
2001-03-04, 00:33:00,VALID,919.126,VALID,0,VALID,92.4228,VALID,-0.101885,VALID,19.8719,VALID,195,VALID,0.692568,
2001-03-04, 00:34:00,VALID,919.119,VALID,0,VALID,91.9141,VALID,-0.0339617,VALID,19.8424,VALID,185,VALID,0.413662,
2001-03-04, 00:35:00,VALID,919.127,VALID,0,VALID,91.9319,VALID,-0.0679233,VALID,19.8006,VALID,162,VALID,0.474724,
2001-03-04, 00:36:00,VALID,919.133,VALID,0,VALID,92.1875,VALID,0,VALID,19.7415,VALID,152,VALID,0.562099,
2001-03-04, 00:37:00,VALID,919.153,VALID,0,VALID,92.541,VALID,0,VALID,19.6828,VALID,164,VALID,0.503701,
2001-03-04, 00:38:00,VALID,919.172,VALID,0,VALID,92.5321,VALID,0.0509425,VALID,19.6212,VALID,167,VALID,0.415582,
2001-03-04, 00:39:00,VALID,919.185,VALID,0,VALID,92.569,VALID,0.0509425,VALID,19.5506,VALID,163,VALID,0.51098,
2001-03-04, 00:40:00,VALID,919.18,VALID,0,VALID,92.8081,VALID,0.0339617,VALID,19.4957,VALID,162,VALID,0.757813,
2001-03-04, 00:41:00,VALID,919.178,VALID,0,VALID,93.173,VALID,0,VALID,19.4279,VALID,160,VALID,0.756579,
2001-03-04, 00:42:00,VALID,919.171,VALID,0,VALID,93.4553,VALID,0,VALID,19.3765,VALID,156,VALID,0.852618,
2001-03-04, 00:43:00,VALID,919.152,VALID,0,VALID,93.9957,VALID,0.0339617,VALID,19.3216,VALID,155,VALID,0.910056,
2001-03-04, 00:44:00,VALID,919.119,VALID,0,VALID,94.3264,VALID,0.0169808,VALID,19.2694,VALID,156,VALID,0.75,
2001-03-04, 00:45:00,VALID,919.092,VALID,0,VALID,94.6646,VALID,0.0339617,VALID,19.2542,VALID,159,VALID,0.816201,
2001-03-04, 00:46:00,VALID,919.073,VALID,0,VALID,94.9939,VALID,0.0679233,VALID,19.2147,VALID,162,VALID,0.7519,
2001-03-04, 00:47:00,VALID,919.065,VALID,0,VALID,95.2534,VALID,0.0679233,VALID,19.1824,VALID,166,VALID,0.880809,
2001-03-04, 00:48:00,VALID,919.063,VALID,0,VALID,95.6577,VALID,0.0679233,VALID,19.173,VALID,181,VALID,0.915752,
2001-03-04, 00:49:00,VALID,919.043,VALID,0,VALID,95.687,VALID,0.0339617,VALID,19.1727,VALID,172,VALID,1.00781,
2001-03-04, 00:50:00,VALID,919.039,VALID,0,VALID,95.5471,VALID,0.0339617,VALID,19.1772,VALID,180,VALID,0.656822,
2001-03-04, 00:51:00,VALID,919.018,VALID,0,VALID,95.584,VALID,-0.0509425,VALID,19.1481,VALID,184,VALID,0.602648,
2001-03-04, 00:52:00,VALID,918.991,VALID,0,VALID,95.6221,VALID,-0.0849042,VALID,19.1354,VALID,199,VALID,0.406055,
2001-03-04, 00:53:00,VALID,918.975,VALID,0,VALID,95.823,VALID,-0.0679233,VALID,19.1128,VALID,227,VALID,0.615585,
2001-03-04, 00:54:00,VALID,918.938,VALID,0,VALID,96.2948,VALID,-0.0679233,VALID,19.1329,VALID,219,VALID,1.01895,
2001-03-04, 00:55:00,VALID,918.94,VALID,0,VALID,96.6038,VALID,-0.0339617,VALID,19.1195,VALID,215,VALID,0.78639,
2001-03-04, 00:56:00,VALID,918.934,VALID,0,VALID,96.736,VALID,-0.0849042,VALID,19.1066,VALID,211,VALID,0.38713,
2001-03-04, 00:57:00,VALID,918.951,VALID,0,VALID,96.8263,VALID,-0.0849042,VALID,19.0743,VALID,189,VALID,0.462416,
2001-03-04, 00:58:00,VALID,918.93,VALID,0,VALID,96.6534,VALID,-0.0679233,VALID,19.0485,VALID,172,VALID,0.610937,
2001-03-04, 00:59:00,VALID,918.916,VALID,0,VALID,96.4385,VALID,-0.0509425,VALID,19.0062,VALID,163,VALID,0.64974,
2001-03-04, 01:00:00,VALID,918.904,VALID,0,VALID,96.6877,VALID,-0.0679233,VALID,19.0065,VALID,164,VALID,0.657728,
2001-03-04, 01:01:00,VALID,918.871,VALID,0,VALID,96.9115,VALID,-0.0849042,VALID,19.0035,VALID,167,VALID,0.775905,
2001-03-04, 01:02:00,VALID,918.861,VALID,0,VALID,96.998,VALID,-0.101885,VALID,18.997,VALID,173,VALID,0.798059,
2001-03-04, 01:03:00,VALID,918.847,VALID,0,VALID,96.8289,VALID,-0.0679233,VALID,19,VALID,168,VALID,0.837377,
2001-03-04, 01:04:00,VALID,918.817,VALID,0,VALID,96.6737,VALID,-0.0679233,VALID,18.9965,VALID,164,VALID,0.910937,
2001-03-04, 01:05:00,VALID,918.81,VALID,0,VALID,96.5262,VALID,-0.0339617,VALID,18.9873,VALID,155,VALID,1.1653,
2001-03-04, 01:06:00,VALID,918.788,VALID,0,VALID,96.6089,VALID,-0.0679233,VALID,18.9802,VALID,155,VALID,0.786595,
2001-03-04, 01:07:00,VALID,918.76,VALID,0,VALID,96.6407,VALID,-0.0849042,VALID,18.9938,VALID,158,VALID,0.51863,
2001-03-04, 01:08:00,VALID,918.734,VALID,0,VALID,96.5707,VALID,-0.0339617,VALID,18.9933,VALID,162,VALID,0.59355,
2001-03-04, 01:09:00,VALID,918.716,VALID,0,VALID,96.4143,VALID,-0.0849042,VALID,18.9846,VALID,160,VALID,0.706209,
2001-03-04, 01:10:00,VALID,918.688,VALID,0,VALID,96.3736,VALID,-0.0679233,VALID,18.952,VALID,153,VALID,0.521998,
2001-03-04, 01:11:00,VALID,918.683,VALID,0,VALID,96.3889,VALID,-0.0679233,VALID,18.923,VALID,134,VALID,0.793555,
2001-03-04, 01:12:00,VALID,918.672,VALID,0,VALID,96.7538,VALID,-0.0169808,VALID,18.9421,VALID,127,VALID,0.702232,
2001-03-04, 01:13:00,VALID,918.665,VALID,0,VALID,96.5695,VALID,-0.0849042,VALID,18.9652,VALID,122,VALID,0.625633,
2001-03-04, 01:14:00,VALID,918.665,VALID,0,VALID,96.324,VALID,-0.0679233,VALID,18.9389,VALID,111,VALID,0.691201,
2001-03-04, 01:15:00,VALID,918.653,VALID,0,VALID,96.202,VALID,-0.0509425,VALID,18.9227,VALID,96,VALID,0.787109,
2001-03-04, 01:16:00,VALID,918.635,VALID,0,VALID,96.3647,VALID,-0.0679233,VALID,18.8902,VALID,96,VALID,0.932943,
2001-03-04, 01:17:00,VALID,918.611,VALID,0,VALID,96.7577,VALID,-0.0169808,VALID,18.9165,VALID,102,VALID,0.832648,
2001-03-04, 01:18:00,VALID,918.587,VALID,0,VALID,96.7093,VALID,-0.0679233,VALID,18.8941,VALID,109,VALID,0.849107,
2001-03-04, 01:19:00,VALID,918.571,VALID,0,VALID,96.9675,VALID,-0.0339617,VALID,18.9068,VALID,115,VALID,0.804087,
2001-03-04, 01:20:00,VALID,918.564,VALID,0,VALID,97.1315,VALID,-0.0679233,VALID,18.926,VALID,118,VALID,0.84158,
2001-03-04, 01:21:00,VALID,918.552,VALID,0,VALID,97.3324,VALID,-0.0679233,VALID,18.9749,VALID,119,VALID,1.06651,
2001-03-04, 01:22:00,VALID,918.54,VALID,0,VALID,97.4965,VALID,-0.0679233,VALID,19.0293,VALID,122,VALID,0.986637,
2001-03-04, 01:23:00,VALID,918.549,VALID,0,VALID,97.5511,VALID,-0.0509425,VALID,19.0847,VALID,131,VALID,1.05633,
2001-03-04, 01:24:00,VALID,918.537,VALID,0,VALID,97.5588,VALID,-0.0509425,VALID,19.1491,VALID,130,VALID,1.2944,
2001-03-04, 01:25:00,VALID,918.527,VALID,0,VALID,97.2104,VALID,-0.101885,VALID,19.2102,VALID,123,VALID,1.02764,
2001-03-04, 01:26:00,VALID,918.525,VALID,0,VALID,96.8886,VALID,-0.0679233,VALID,19.249,VALID,129,VALID,1.04247,
2001-03-04, 01:27:00,VALID,918.518,VALID,0,VALID,96.7386,VALID,-0.0679233,VALID,19.291,VALID,135,VALID,0.879223,
2001-03-04, 01:28:00,VALID,918.51,VALID,0,VALID,96.5033,VALID,-0.0509425,VALID,19.3141,VALID,143,VALID,0.87207,
2001-03-04, 01:29:00,VALID,918.504,VALID,0,VALID,96.4563,VALID,-0.0679233,VALID,19.3332,VALID,149,VALID,0.838235,
2001-03-04, 01:30:00,VALID,918.508,VALID,0,VALID,96.2884,VALID,-0.0679233,VALID,19.3265,VALID,167,VALID,0.679102,
2001-03-04, 01:31:00,VALID,918.508,VALID,0,VALID,95.9655,VALID,-0.0679233,VALID,19.3036,VALID,178,VALID,0.782652,
2001-03-04, 01:32:00,VALID,918.506,VALID,0,VALID,95.7684,VALID,-0.0849042,VALID,19.2492,VALID,181,VALID,0.9706,
2001-03-04, 01:33:00,VALID,918.503,VALID,0,VALID,95.8752,VALID,-0.0509425,VALID,19.1908,VALID,180,VALID,1.15687,
2001-03-04, 01:34:00,VALID,918.498,VALID,0,VALID,96.4499,VALID,-0.0849042,VALID,19.1618,VALID,181,VALID,0.958789,
2001-03-04, 01:35:00,VALID,918.483,VALID,0,VALID,96.4639,VALID,-0.0679233,VALID,19.1563,VALID,182,VALID,0.931445,
2001-03-04, 01:36:00,VALID,918.467,VALID,0,VALID,96.5364,VALID,-0.0679233,VALID,19.1299,VALID,176,VALID,0.965345,
2001-03-04, 01:37:00,VALID,918.454,VALID,0,VALID,96.3647,VALID,-0.0679233,VALID,19.0815,VALID,172,VALID,0.699013,
2001-03-04, 01:38:00,VALID,918.436,VALID,0,VALID,96.2846,VALID,-0.0509425,VALID,19.042,VALID,170,VALID,0.469351,
2001-03-04, 01:39:00,VALID,918.422,VALID,0,VALID,96.3304,VALID,-0.0509425,VALID,19.0196,VALID,170,VALID,0.490385,
2001-03-04, 01:40:00,VALID,918.409,VALID,0,VALID,96.5618,VALID,-0.0339617,VALID,19.0099,VALID,177,VALID,0.684333,
2001-03-04, 01:41:00,VALID,918.407,VALID,0,VALID,96.7882,VALID,-0.0679233,VALID,19.0099,VALID,183,VALID,0.787861,
2001-03-04, 01:42:00,VALID,918.388,VALID,0,VALID,96.8975,VALID,-0.0509425,VALID,18.9933,VALID,190,VALID,0.637587,
2001-03-04, 01:43:00,VALID,918.376,VALID,0,VALID,96.9319,VALID,-0.0679233,VALID,18.9876,VALID,194,VALID,0.379991,
2001-03-04, 01:44:00,VALID,918.356,VALID,0,VALID,96.9904,VALID,-0.0679233,VALID,18.9776,VALID,202,VALID,0.611133,
2001-03-04, 01:45:00,VALID,918.343,VALID,0,VALID,97.0514,VALID,-0.0679233,VALID,18.9871,VALID,201,VALID,0.884079,
2001-03-04, 01:46:00,VALID,918.335,VALID,0,VALID,97.0667,VALID,-0.0339617,VALID,18.9871,VALID,215,VALID,0.698117,
2001-03-04, 01:47:00,VALID,918.329,VALID,0,VALID,97.1506,VALID,-0.0509425,VALID,18.991,VALID,223,VALID,0.835321,
2001-03-04, 01:48:00,VALID,918.323,VALID,0,VALID,97.2167,VALID,-0.0509425,VALID,18.9906,VALID,227,VALID,0.879573,
2001-03-04, 01:49:00,VALID,918.316,VALID,0,VALID,97.3515,VALID,-0.0679233,VALID,18.9938,VALID,222,VALID,1.2488,
2001-03-04, 01:50:00,VALID,918.288,VALID,0,VALID,97.3922,VALID,-0.0849042,VALID,18.9806,VALID,222,VALID,1.06905,
2001-03-04, 01:51:00,VALID,918.274,VALID,0,VALID,97.4164,VALID,-0.0849042,VALID,18.9675,VALID,223,VALID,1.06445,
2001-03-04, 01:52:00,VALID,918.261,VALID,0,VALID,97.4278,VALID,-0.0509425,VALID,18.9684,VALID,210,VALID,0.842348,
2001-03-04, 01:53:00,VALID,918.251,VALID,0,VALID,97.3858,VALID,-0.0849042,VALID,18.9426,VALID,200,VALID,0.636308,
2001-03-04, 01:54:00,VALID,918.262,VALID,0,VALID,97.4977,VALID,-0.0509425,VALID,18.923,VALID,186,VALID,0.933488,
2001-03-04, 01:55:00,VALID,918.258,VALID,0,VALID,97.5333,VALID,-0.0679233,VALID,18.923,VALID,188,VALID,0.8125,
2001-03-04, 01:56:00,VALID,918.255,VALID,0,VALID,97.5728,VALID,-0.0679233,VALID,18.9262,VALID,189,VALID,0.889017,
2001-03-04, 01:57:00,VALID,918.249,VALID,0,VALID,97.5537,VALID,-0.0509425,VALID,18.9327,VALID,192,VALID,0.80649,
2001-03-04, 01:58:00,VALID,918.239,VALID,0,VALID,97.452,VALID,-0.0169808,VALID,18.9255,VALID,204,VALID,0.825041,
2001-03-04, 01:59:00,VALID,918.226,VALID,0,VALID,97.3744,VALID,-0.0509425,VALID,18.9158,VALID,197,VALID,0.907769,
2001-03-04, 02:00:00,VALID,918.214,VALID,0,VALID,97.3566,VALID,-0.0169808,VALID,18.929,VALID,193,VALID,1.02111,
2001-03-04, 02:01:00,VALID,918.202,VALID,0,VALID,97.3858,VALID,-0.0509425,VALID,18.9357,VALID,192,VALID,0.920898,
2001-03-04, 02:02:00,VALID,918.191,VALID,0,VALID,97.3095,VALID,-0.0679233,VALID,18.9391,VALID,177,VALID,0.844161,
2001-03-04, 02:03:00,VALID,918.173,VALID,0,VALID,97.2078,VALID,-0.0169808,VALID,18.9324,VALID,173,VALID,0.977618,
2001-03-04, 02:04:00,VALID,918.154,VALID,0,VALID,97.2027,VALID,-0.0339617,VALID,18.9257,VALID,177,VALID,0.870994,
2001-03-04, 02:05:00,VALID,918.133,VALID,0,VALID,97.1557,VALID,-0.0679233,VALID,18.9324,VALID,184,VALID,0.909455,
2001-03-04, 02:06:00,VALID,918.117,VALID,0,VALID,97.1887,VALID,0,VALID,18.9225,VALID,187,VALID,0.915913,
2001-03-04, 02:07:00,VALID,918.089,VALID,0,VALID,97.2587,VALID,0.0169808,VALID,18.9056,VALID,187,VALID,0.975507,
2001-03-04, 02:08:00,VALID,918.08,VALID,0,VALID,97.279,VALID,0.0169808,VALID,18.9084,VALID,200,VALID,0.905649,
2001-03-04, 02:09:00,VALID,918.076,VALID,0,VALID,97.2434,VALID,0,VALID,18.9218,VALID,201,VALID,0.89147,
2001-03-04, 02:10:00,VALID,918.066,VALID,0,VALID,97.101,VALID,0.0169808,VALID,18.9253,VALID,198,VALID,0.856419,
2001-03-04, 02:11:00,VALID,918.066,VALID,0,VALID,97.0921,VALID,0,VALID,18.9319,VALID,205,VALID,0.818216,
2001-03-04, 02:12:00,VALID,918.053,VALID,0,VALID,97.0565,VALID,0,VALID,18.9449,VALID,200,VALID,0.784939,
2001-03-04, 02:13:00,VALID,918.06,VALID,0,VALID,97.0094,VALID,0,VALID,18.9349,VALID,189,VALID,0.970898,
2001-03-04, 02:14:00,VALID,918.026,VALID,0,VALID,97.0412,VALID,0.0169808,VALID,18.9315,VALID,182,VALID,0.877804,
2001-03-04, 02:15:00,VALID,918.018,VALID,0,VALID,97.0018,VALID,-0.0169808,VALID,18.9349,VALID,176,VALID,0.955664,
2001-03-04, 02:16:00,VALID,918.016,VALID,0,VALID,96.956,VALID,0,VALID,18.9384,VALID,173,VALID,0.901933,
2001-03-04, 02:17:00,VALID,918.011,VALID,0,VALID,96.8403,VALID,-0.0169808,VALID,18.9349,VALID,169,VALID,0.931743,
2001-03-04, 02:18:00,VALID,918.012,VALID,0,VALID,96.7119,VALID,-0.0169808,VALID,18.9255,VALID,163,VALID,0.733953,
2001-03-04, 02:19:00,VALID,918.024,VALID,0,VALID,96.647,VALID,0,VALID,18.8997,VALID,160,VALID,0.770508,
2001-03-04, 02:20:00,VALID,918.037,VALID,0,VALID,96.6445,VALID,0.0339617,VALID,18.8703,VALID,162,VALID,0.567057,
2001-03-04, 02:21:00,VALID,918.033,VALID,0,VALID,96.6381,VALID,0.101885,VALID,18.8309,VALID,184,VALID,0.66059,
2001-03-04, 02:22:00,VALID,918.016,VALID,0,VALID,96.6941,VALID,0.101885,VALID,18.808,VALID,195,VALID,0.718544,
2001-03-04, 02:23:00,VALID,918.01,VALID,0,VALID,96.7106,VALID,0.101885,VALID,18.782,VALID,182,VALID,0.65554,
2001-03-04, 02:24:00,VALID,917.982,VALID,0,VALID,96.6928,VALID,0.101885,VALID,18.7561,VALID,190,VALID,0.679071,
2001-03-04, 02:25:00,VALID,917.949,VALID,0,VALID,96.7322,VALID,0.101885,VALID,18.7472,VALID,189,VALID,0.718164,
2001-03-04, 02:26:00,VALID,917.918,VALID,0,VALID,96.8734,VALID,0.135847,VALID,18.7238,VALID,188,VALID,0.901933,
2001-03-04, 02:27:00,VALID,917.873,VALID,0,VALID,97.0044,VALID,0.101885,VALID,18.7241,VALID,177,VALID,1.00843,
2001-03-04, 02:28:00,VALID,917.845,VALID,0,VALID,96.9865,VALID,0.118866,VALID,18.7266,VALID,173,VALID,0.79347,
2001-03-04, 02:29:00,VALID,917.823,VALID,0,VALID,96.7246,VALID,0.101885,VALID,18.7075,VALID,165,VALID,0.842748,
2001-03-04, 02:30:00,VALID,917.793,VALID,0,VALID,96.5415,VALID,0.101885,VALID,18.692,VALID,166,VALID,0.789268,
2001-03-04, 02:31:00,VALID,917.775,VALID,0,VALID,96.3571,VALID,0.101885,VALID,18.6498,VALID,165,VALID,0.809005,
2001-03-04, 02:32:00,VALID,917.744,VALID,0,VALID,96.6725,VALID,0.101885,VALID,18.6344,VALID,174,VALID,1.0584,
2001-03-04, 02:33:00,VALID,917.706,VALID,0,VALID,96.8314,VALID,0.101885,VALID,18.6371,VALID,183,VALID,0.980804,
2001-03-04, 02:34:00,VALID,917.672,VALID,0,VALID,96.9052,VALID,0.101885,VALID,18.6433,VALID,192,VALID,1.02048,
2001-03-04, 02:35:00,VALID,917.638,VALID,0,VALID,96.7564,VALID,0.0679233,VALID,18.6145,VALID,185,VALID,0.865748,
2001-03-04, 02:36:00,VALID,917.614,VALID,0,VALID,96.9014,VALID,0,VALID,18.6129,VALID,189,VALID,0.857856,
2001-03-04, 02:37:00,VALID,917.6,VALID,0,VALID,96.9344,VALID,0,VALID,18.6032,VALID,185,VALID,0.817274,
2001-03-04, 02:38:00,VALID,917.583,VALID,0,VALID,97.0972,VALID,0.0169808,VALID,18.5901,VALID,182,VALID,0.958059,
2001-03-04, 02:39:00,VALID,917.562,VALID,0,VALID,97.2879,VALID,-0.0169808,VALID,18.5968,VALID,189,VALID,1.22589,
2001-03-04, 02:40:00,VALID,917.566,VALID,0,VALID,97.3693,VALID,0,VALID,18.6196,VALID,190,VALID,1.10056,
2001-03-04, 02:41:00,VALID,917.552,VALID,0,VALID,97.4151,VALID,0,VALID,18.6067,VALID,199,VALID,0.813802,
2001-03-04, 02:42:00,VALID,917.547,VALID,0,VALID,97.3769,VALID,0,VALID,18.5965,VALID,225,VALID,0.848184,
2001-03-04, 02:43:00,VALID,917.535,VALID,0,VALID,97.3947,VALID,0.0169808,VALID,18.5963,VALID,227,VALID,0.995683,
2001-03-04, 02:44:00,VALID,917.521,VALID,0,VALID,97.3795,VALID,-0.0169808,VALID,18.5938,VALID,227,VALID,0.875411,
2001-03-04, 02:45:00,VALID,917.52,VALID,0,VALID,97.466,VALID,-0.0169808,VALID,18.5486,VALID,227,VALID,1.05221,
2001-03-04, 02:46:00,VALID,917.508,VALID,0,VALID,97.6313,VALID,0,VALID,18.5354,VALID,216,VALID,0.934095,
2001-03-04, 02:47:00,VALID,917.494,VALID,0,VALID,97.7533,VALID,-0.0169808,VALID,18.5096,VALID,203,VALID,0.639623,
2001-03-04, 02:48:00,VALID,917.478,VALID,0,VALID,97.8868,VALID,0,VALID,18.4967,VALID,198,VALID,0.675253,
2001-03-04, 02:49:00,VALID,917.456,VALID,0,VALID,97.9733,VALID,0,VALID,18.4997,VALID,201,VALID,0.445117,
2001-03-04, 02:50:00,VALID,917.432,VALID,0,VALID,98.0979,VALID,-0.0339617,VALID,18.5034,VALID,204,VALID,0.326746,
2001-03-04, 02:51:00,VALID,917.408,VALID,0,VALID,98.0928,VALID,-0.118866,VALID,18.5142,VALID,207,VALID,0.259375,
2001-03-04, 02:52:00,VALID,917.4,VALID,0,VALID,98.0801,VALID,-0.101885,VALID,18.5274,VALID,225,VALID,0.473558,
2001-03-04, 02:53:00,VALID,917.387,VALID,0,VALID,98.0687,VALID,-0.118866,VALID,18.5239,VALID,211,VALID,0.789474,
2001-03-04, 02:54:00,VALID,917.39,VALID,0,VALID,98.0611,VALID,-0.101885,VALID,18.5403,VALID,204,VALID,0.710526,
2001-03-04, 02:55:00,VALID,917.389,VALID,0,VALID,98.0509,VALID,-0.101885,VALID,18.5336,VALID,184,VALID,0.552148,
2001-03-04, 02:56:00,VALID,917.386,VALID,0,VALID,98.0077,VALID,-0.101885,VALID,18.5299,VALID,176,VALID,0.140039,
2001-03-04, 02:57:00,VALID,917.378,VALID,0,VALID,98.0051,VALID,-0.101885,VALID,18.5467,VALID,202,VALID,0.134816,
2001-03-04, 02:58:00,VALID,917.367,VALID,0,VALID,97.986,VALID,-0.101885,VALID,18.55,VALID,226,VALID,0.284539,
2001-03-04, 02:59:00,VALID,917.358,VALID,0,VALID,97.9517,VALID,-0.101885,VALID,18.5627,VALID,260,VALID,0.341747,
2001-03-04, 03:00:00,VALID,917.347,VALID,0,VALID,97.8576,VALID,-0.101885,VALID,18.5592,VALID,261,VALID,0.270032,
2001-03-04, 03:01:00,VALID,917.32,VALID,0,VALID,97.7953,VALID,-0.101885,VALID,18.5758,VALID,262,VALID,0.40984,
2001-03-04, 03:02:00,VALID,917.313,VALID,0,VALID,97.8029,VALID,-0.101885,VALID,18.5853,VALID,262,VALID,0.452925,
2001-03-04, 03:03:00,VALID,917.3,VALID,0,VALID,97.7927,VALID,-0.118866,VALID,18.6143,VALID,262,VALID,0.271918,
2001-03-04, 03:04:00,VALID,917.288,VALID,0,VALID,97.4876,VALID,-0.0849042,VALID,18.6019,VALID,258,VALID,0.119792,
2001-03-04, 03:05:00,VALID,917.28,VALID,0,VALID,97.2688,VALID,-0.0509425,VALID,18.5686,VALID,252,VALID,0.0708984,
2001-03-04, 03:06:00,VALID,917.258,VALID,0,VALID,97.1773,VALID,0.0679233,VALID,18.5442,VALID,209,VALID,0.351563,
2001-03-04, 03:07:00,VALID,917.253,VALID,0,VALID,97.1646,VALID,0.0509425,VALID,18.5382,VALID,201,VALID,0.620393,
2001-03-04, 03:08:00,VALID,917.252,VALID,0,VALID,97.2371,VALID,0.0169808,VALID,18.5382,VALID,202,VALID,0.776316,
2001-03-04, 03:09:00,VALID,917.246,VALID,0,VALID,97.3083,VALID,0.0849042,VALID,18.5379,VALID,198,VALID,0.655107,
2001-03-04, 03:10:00,VALID,917.233,VALID,0,VALID,97.5575,VALID,0.0509425,VALID,18.5707,VALID,200,VALID,0.783454,
2001-03-04, 03:11:00,VALID,917.239,VALID,0,VALID,97.5054,VALID,0.0339617,VALID,18.5901,VALID,186,VALID,0.557221,
2001-03-04, 03:12:00,VALID,917.23,VALID,0,VALID,97.2078,VALID,0.0339617,VALID,18.5804,VALID,179,VALID,0.244727,
2001-03-04, 03:13:00,VALID,917.233,VALID,0,VALID,97.1748,VALID,0.0339617,VALID,18.5705,VALID,175,VALID,0,
2001-03-04, 03:14:00,VALID,917.231,VALID,0,VALID,97.1099,VALID,0.0509425,VALID,18.5606,VALID,174,VALID,0,
2001-03-04, 03:15:00,VALID,917.235,VALID,0,VALID,96.8797,VALID,0.0169808,VALID,18.5347,VALID,175,VALID,0,
2001-03-04, 03:16:00,VALID,917.231,VALID,0,VALID,96.8746,VALID,0.0339617,VALID,18.5253,VALID,175,VALID,0,
2001-03-04, 03:17:00,VALID,917.239,VALID,0,VALID,96.8085,VALID,0.0169808,VALID,18.5063,VALID,174,VALID,0,
2001-03-04, 03:18:00,VALID,917.232,VALID,0,VALID,96.9433,VALID,0,VALID,18.4904,VALID,173,VALID,0,
2001-03-04, 03:19:00,VALID,917.227,VALID,0,VALID,97.0056,VALID,0,VALID,18.4872,VALID,164,VALID,0,
2001-03-04, 03:20:00,VALID,917.234,VALID,0,VALID,97.2371,VALID,0.0169808,VALID,18.4833,VALID,162,VALID,0,
2001-03-04, 03:21:00,VALID,917.225,VALID,0,VALID,97.2002,VALID,0.0339617,VALID,18.4874,VALID,158,VALID,0,
2001-03-04, 03:22:00,VALID,917.219,VALID,0,VALID,97.19,VALID,0.0339617,VALID,18.4807,VALID,153,VALID,0,
2001-03-04, 03:23:00,VALID,917.225,VALID,0,VALID,97.2091,VALID,0,VALID,18.4773,VALID,153,VALID,0,
2001-03-04, 03:24:00,VALID,917.231,VALID,0,VALID,97.1239,VALID,0.0509425,VALID,18.4738,VALID,152,VALID,0,
2001-03-04, 03:25:00,VALID,917.247,VALID,0,VALID,97.1531,VALID,0.0339617,VALID,18.4674,VALID,151,VALID,0,
2001-03-04, 03:26:00,VALID,917.246,VALID,0,VALID,97.4024,VALID,0.0169808,VALID,18.487,VALID,150,VALID,0,
2001-03-04, 03:27:00,VALID,917.254,VALID,0,VALID,97.616,VALID,0,VALID,18.5255,VALID,150,VALID,0,
2001-03-04, 03:28:00,VALID,917.268,VALID,0,VALID,97.6389,VALID,0.0679233,VALID,18.5548,VALID,164,VALID,0,
2001-03-04, 03:29:00,VALID,917.278,VALID,0,VALID,97.6134,VALID,0.0509425,VALID,18.5709,VALID,177,VALID,0,
2001-03-04, 03:30:01,VALID,917.304,VALID,0,VALID,97.6478,VALID,0,VALID,18.5968,VALID,177,VALID,0,
2001-03-04, 03:31:01,VALID,917.32,VALID,0,VALID,97.6185,VALID,0.0679233,VALID,18.6256,VALID,176,VALID,0,